GIA009 WARR-WADD

Flight info

Callsign GIA009
Flight time 0h 33m
Altitude 25000
Route MOVMO
Aircraft B738/M-SDE2E3FGHIRWXY/LB1

Departure

Time 2026-04-29 14:04
Airport Juanda International Airport (WARR)

Arrival

Time 2026-04-29 14:37
Airport Denpasar I Gusti Ngurah Rai International Airport (WADD)
Time Latitude Longitude Altitude Speed Heading
2026-04-29 13:25 -7.37620 112.79646 -19 ft 0 kts
2026-04-29 13:52 -7.37635 112.79644 8 ft 4 kts
2026-04-29 13:52 -7.37662 112.79644 9 ft 4 kts 349°
2026-04-29 13:52 -7.37688 112.79652 10 ft 4 kts 332°
2026-04-29 13:53 -7.37708 112.79668 11 ft 4 kts 297°
2026-04-29 13:53 -7.37712 112.79677 10 ft 1 kts 279°
2026-04-29 13:56 -7.37709 112.79643 10 ft 10 kts 277°
2026-04-29 13:56 -7.37691 112.79535 8 ft 21 kts 279°
2026-04-29 13:56 -7.37663 112.79360 8 ft 30 kts 279°
2026-04-29 13:56 -7.37632 112.79170 10 ft 26 kts 278°
2026-04-29 13:57 -7.37682 112.79095 8 ft 16 kts 193°
2026-04-29 13:57 -7.37818 112.79072 8 ft 18 kts 195°
2026-04-29 13:57 -7.37848 112.78938 10 ft 26 kts 278°
2026-04-29 13:57 -7.37827 112.78806 8 ft 31 kts 280°
2026-04-29 13:58 -7.37772 112.78471 8 ft 41 kts 278°
2026-04-29 13:58 -7.37739 112.78263 8 ft 7 kts 279°
2026-04-29 13:58 -7.37731 112.78213 8 ft 8 kts 279°
2026-04-29 13:58 -7.37723 112.78161 8 ft 7 kts 279°
2026-04-29 13:59 -7.37715 112.78112 8 ft 7 kts 278°
2026-04-29 13:59 -7.37708 112.78064 8 ft 7 kts 278°
2026-04-29 13:59 -7.37704 112.78038 8 ft 0 kts 278°
2026-04-29 14:00 -7.37703 112.78031 10 ft 2 kts 278°
2026-04-29 14:00 -7.37699 112.78007 8 ft 5 kts 279°
2026-04-29 14:00 -7.37691 112.77957 10 ft 9 kts 279°
2026-04-29 14:00 -7.37678 112.77883 8 ft 12 kts 280°
2026-04-29 14:01 -7.37663 112.77792 8 ft 14 kts 278°
2026-04-29 14:01 -7.37648 112.77695 10 ft 14 kts 280°
2026-04-29 14:01 -7.37632 112.77600 8 ft 14 kts 278°
2026-04-29 14:01 -7.37616 112.77503 8 ft 14 kts 279°
2026-04-29 14:02 -7.37618 112.77413 8 ft 9 kts 241°
2026-04-29 14:02 -7.37671 112.77382 7 ft 11 kts 193°
2026-04-29 14:02 -7.37735 112.77370 8 ft 7 kts 189°
2026-04-29 14:02 -7.37769 112.77382 8 ft 4 kts 125°
2026-04-29 14:03 -7.37774 112.77395 9 ft 1 kts 112°
2026-04-29 14:03 -7.37774 112.77399 9 ft 1 kts 101°
2026-04-29 14:03 -7.37778 112.77418 8 ft 16 kts 99°
2026-04-29 14:03 -7.37850 112.77864 10 ft 113 kts 99°
2026-04-29 14:04 -7.38019 112.78902 213 ft 176 kts 98°
2026-04-29 14:04 -7.38237 112.80202 1043 ft 195 kts 99°
2026-04-29 14:04 -7.38459 112.81611 1831 ft 218 kts 98°
2026-04-29 14:04 -7.38623 112.82656 2075 ft 235 kts 98°
2026-04-29 14:05 -7.38888 112.84331 2602 ft 248 kts 99°
2026-04-29 14:05 -7.39165 112.86053 3407 ft 248 kts 99°
2026-04-29 14:05 -7.39445 112.87783 4168 ft 254 kts 99°
2026-04-29 14:05 -7.39732 112.89543 5127 ft 255 kts 99°
2026-04-29 14:06 -7.40020 112.91309 6121 ft 257 kts 99°
2026-04-29 14:06 -7.40448 112.93072 6967 ft 263 kts 115°
2026-04-29 14:06 -7.41407 112.94678 7747 ft 273 kts 122°
2026-04-29 14:06 -7.42475 112.96299 8498 ft 282 kts 123°
2026-04-29 14:07 -7.43575 112.97957 9346 ft 287 kts 123°
2026-04-29 14:07 -7.44686 112.99640 10207 ft 291 kts 123°
2026-04-29 14:07 -7.45803 113.01346 11032 ft 294 kts 122°
2026-04-29 14:07 -7.46935 113.03086 11844 ft 298 kts 122°
2026-04-29 14:08 -7.48071 113.04844 12608 ft 305 kts 122°
2026-04-29 14:08 -7.49255 113.06684 13157 ft 316 kts 122°
2026-04-29 14:08 -7.50465 113.08568 13793 ft 324 kts 122°
2026-04-29 14:08 -7.51703 113.10500 14367 ft 332 kts 122°
2026-04-29 14:09 -7.52967 113.12475 14950 ft 338 kts 122°
2026-04-29 14:09 -7.54253 113.14487 15538 ft 344 kts 122°
2026-04-29 14:09 -7.55560 113.16532 16136 ft 349 kts 122°
2026-04-29 14:09 -7.56861 113.18569 16746 ft 354 kts 122°
2026-04-29 14:10 -7.58207 113.20677 17369 ft 358 kts 121°
2026-04-29 14:10 -7.59557 113.22792 18002 ft 361 kts 121°
2026-04-29 14:10 -7.60922 113.24931 18607 ft 363 kts 121°
2026-04-29 14:10 -7.62288 113.27071 19176 ft 365 kts 122°
2026-04-29 14:11 -7.63665 113.29228 19740 ft 367 kts 122°
2026-04-29 14:11 -7.65055 113.31406 20325 ft 369 kts 122°
2026-04-29 14:11 -7.66447 113.33589 20926 ft 370 kts 122°
2026-04-29 14:11 -7.67849 113.35787 21414 ft 375 kts 122°
2026-04-29 14:12 -7.69269 113.38014 21915 ft 380 kts 122°
2026-04-29 14:12 -7.70704 113.40265 22417 ft 383 kts 122°
2026-04-29 14:12 -7.72153 113.42538 22928 ft 387 kts 122°
2026-04-29 14:12 -7.73610 113.44824 23448 ft 389 kts 122°
2026-04-29 14:13 -7.75083 113.47135 23847 ft 393 kts 122°
2026-04-29 14:13 -7.76546 113.49431 24234 ft 396 kts 122°
2026-04-29 14:13 -7.78046 113.51786 24650 ft 400 kts 122°
2026-04-29 14:13 -7.79559 113.54161 24918 ft 407 kts 122°
2026-04-29 14:14 -7.81105 113.56588 24956 ft 417 kts 122°
2026-04-29 14:14 -7.82688 113.59075 24964 ft 426 kts 122°
2026-04-29 14:14 -7.84305 113.61615 24968 ft 434 kts 122°
2026-04-29 14:14 -7.85944 113.64189 24964 ft 441 kts 122°
2026-04-29 14:15 -7.87612 113.66811 24965 ft 447 kts 122°
2026-04-29 14:15 -7.89305 113.69471 24973 ft 452 kts 122°
2026-04-29 14:15 -7.91012 113.72155 24966 ft 456 kts 122°
2026-04-29 14:15 -7.92724 113.74846 24959 ft 454 kts 122°
2026-04-29 14:16 -7.94424 113.77520 24963 ft 452 kts 122°
2026-04-29 14:16 -7.96122 113.80191 24963 ft 451 kts 122°
2026-04-29 14:16 -7.97813 113.82851 24971 ft 448 kts 122°
2026-04-29 14:16 -7.99461 113.85443 24948 ft 428 kts 123°
2026-04-29 14:17 -8.01312 113.87701 24951 ft 410 kts 139°
2026-04-29 14:17 -8.03671 113.89271 24974 ft 406 kts 153°
2026-04-29 14:17 -8.06337 113.90201 24968 ft 406 kts 168°
2026-04-29 14:17 -8.09098 113.90617 24983 ft 408 kts 172°
2026-04-29 14:18 -8.11899 113.90938 25415 ft 400 kts 173°
2026-04-29 14:18 -8.14712 113.91240 25184 ft 408 kts 173°
2026-04-29 14:18 -8.17507 113.91546 25090 ft 401 kts 173°
2026-04-29 14:18 -8.20255 113.91868 24997 ft 395 kts 170°
2026-04-29 14:19 -8.22808 113.92764 24697 ft 387 kts 147°
2026-04-29 14:19 -8.24798 113.94514 24689 ft 372 kts 130°
2026-04-29 14:19 -8.26235 113.96680 24589 ft 374 kts 119°
2026-04-29 14:19 -8.27498 113.99030 24055 ft 384 kts 117°
2026-04-29 14:20 -8.28730 114.01432 23541 ft 386 kts 117°
2026-04-29 14:20 -8.29954 114.03843 22980 ft 385 kts 117°
2026-04-29 14:20 -8.31160 114.06206 22479 ft 383 kts 117°
2026-04-29 14:20 -8.32397 114.08610 21977 ft 380 kts 117°
2026-04-29 14:21 -8.33606 114.10944 21495 ft 378 kts 117°
2026-04-29 14:21 -8.34824 114.13283 21018 ft 376 kts 117°
2026-04-29 14:21 -8.36044 114.15617 20539 ft 374 kts 117°
2026-04-29 14:21 -8.37255 114.17933 20075 ft 372 kts 117°
2026-04-29 14:22 -8.38465 114.20243 19613 ft 370 kts 117°
2026-04-29 14:22 -8.39650 114.22505 19141 ft 359 kts 117°
2026-04-29 14:22 -8.40805 114.24710 18694 ft 350 kts 117°
2026-04-29 14:22 -8.41930 114.26857 18241 ft 342 kts 116°
2026-04-29 14:23 -8.43031 114.28959 17733 ft 335 kts 116°
2026-04-29 14:23 -8.44110 114.31020 17231 ft 329 kts 116°
2026-04-29 14:23 -8.45165 114.33037 16734 ft 323 kts 116°
2026-04-29 14:23 -8.46207 114.35029 16247 ft 318 kts 116°
2026-04-29 14:24 -8.47233 114.36992 15768 ft 313 kts 117°
2026-04-29 14:24 -8.48246 114.38929 15306 ft 312 kts 117°
2026-04-29 14:24 -8.49266 114.40879 14869 ft 315 kts 117°
2026-04-29 14:24 -8.50287 114.42833 14464 ft 314 kts 117°
2026-04-29 14:25 -8.51296 114.44764 14030 ft 308 kts 117°
2026-04-29 14:25 -8.52292 114.46668 13584 ft 303 kts 117°
2026-04-29 14:25 -8.53269 114.48537 13115 ft 299 kts 117°
2026-04-29 14:25 -8.54231 114.50378 12665 ft 294 kts 117°
2026-04-29 14:26 -8.55180 114.52193 12220 ft 290 kts 117°
2026-04-29 14:26 -8.56113 114.53979 11785 ft 286 kts 117°
2026-04-29 14:26 -8.57033 114.55742 11363 ft 282 kts 117°
2026-04-29 14:26 -8.57943 114.57483 10937 ft 279 kts 117°
2026-04-29 14:27 -8.58853 114.59226 10567 ft 280 kts 117°
2026-04-29 14:27 -8.59755 114.60954 10213 ft 282 kts 117°
2026-04-29 14:27 -8.60673 114.62713 9847 ft 284 kts 117°
2026-04-29 14:28 -8.62483 114.66179 9042 ft 273 kts 117°
2026-04-29 14:28 -8.63359 114.67858 8642 ft 268 kts 117°
2026-04-29 14:28 -8.64225 114.69517 8250 ft 264 kts 117°
2026-04-29 14:28 -8.65077 114.71150 7858 ft 260 kts 117°
2026-04-29 14:29 -8.65918 114.72762 7485 ft 260 kts 117°
2026-04-29 14:29 -8.66766 114.74390 7120 ft 263 kts 117°
2026-04-29 14:29 -8.67621 114.76029 6749 ft 266 kts 117°
2026-04-29 14:29 -8.68492 114.77699 6400 ft 269 kts 117°
2026-04-29 14:30 -8.69367 114.79378 6013 ft 271 kts 117°
2026-04-29 14:30 -8.70235 114.81042 5619 ft 265 kts 117°
2026-04-29 14:30 -8.71077 114.82658 5264 ft 254 kts 117°
2026-04-29 14:30 -8.71883 114.84204 4868 ft 243 kts 117°
2026-04-29 14:31 -8.72659 114.85693 4469 ft 236 kts 117°
2026-04-29 14:31 -8.73415 114.87144 4069 ft 231 kts 117°
2026-04-29 14:31 -8.74160 114.88573 3682 ft 229 kts 116°
2026-04-29 14:31 -8.74899 114.89992 3541 ft 227 kts 117°
2026-04-29 14:32 -8.75462 114.91478 3502 ft 227 kts 97°
2026-04-29 14:32 -8.75497 114.93079 3508 ft 230 kts 90°
2026-04-29 14:32 -8.75497 114.94709 3492 ft 231 kts 90°
2026-04-29 14:32 -8.75503 114.96289 3256 ft 227 kts 91°
2026-04-29 14:33 -8.75511 114.97915 2772 ft 235 kts 90°
2026-04-29 14:33 -8.75517 114.99538 2572 ft 226 kts 90°
2026-04-29 14:33 -8.75466 115.01051 2489 ft 204 kts 88°
2026-04-29 14:33 -8.75407 115.02387 2441 ft 178 kts 88°
2026-04-29 14:34 -8.75356 115.03576 2239 ft 162 kts 88°
2026-04-29 14:34 -8.75313 115.04666 2054 ft 149 kts 89°
2026-04-29 14:34 -8.75272 115.05689 1877 ft 146 kts 89°
2026-04-29 14:34 -8.75232 115.06718 1691 ft 148 kts 89°
2026-04-29 14:35 -8.75192 115.07761 1482 ft 148 kts 89°
2026-04-29 14:35 -8.75152 115.08790 1303 ft 146 kts 89°
2026-04-29 14:35 -8.75112 115.09818 1110 ft 147 kts 88°
2026-04-29 14:35 -8.75071 115.10848 927 ft 146 kts 90°
2026-04-29 14:36 -8.75031 115.11879 745 ft 147 kts 89°
2026-04-29 14:36 -8.74992 115.12883 550 ft 143 kts 89°
2026-04-29 14:36 -8.74953 115.13877 380 ft 144 kts 90°
2026-04-29 14:36 -8.74910 115.14903 165 ft 144 kts 90°
2026-04-29 14:37 -8.74877 115.15874 29 ft 129 kts 90°
2026-04-29 14:37 -8.74847 115.16633 27 ft 88 kts 87°
2026-04-29 14:37 -8.74823 115.17198 29 ft 72 kts 88°
2026-04-29 14:37 -8.74801 115.17325 27 ft 0 kts 37°
2026-04-29 14:38 -8.74792 115.17326 27 ft 3 kts
2026-04-29 14:38 -8.74730 115.17314 29 ft 0 kts 357°
2026-04-29 14:38 -8.74711 115.17313 30 ft 5 kts 353°
2026-04-29 14:38 -8.74669 115.17285 30 ft 10 kts 306°
2026-04-29 14:39 -8.74659 115.17201 31 ft 15 kts 266°
2026-04-29 14:39 -8.74664 115.17076 31 ft 20 kts 268°
2026-04-29 14:39 -8.74670 115.16921 31 ft 21 kts 266°
2026-04-29 14:39 -8.74676 115.16801 31 ft 11 kts 268°
2026-04-29 14:40 -8.74680 115.16711 31 ft 15 kts 267°
2026-04-29 14:40 -8.74685 115.16603 31 ft 16 kts 268°
2026-04-29 14:40 -8.74689 115.16498 31 ft 8 kts 268°
2026-04-29 14:40 -8.74690 115.16484 31 ft 5 kts 268°
2026-04-29 14:41 -8.74692 115.16418 32 ft 13 kts 268°
2026-04-29 14:41 -8.74684 115.16345 32 ft 9 kts 313°
2026-04-29 14:41 -8.74628 115.16341 32 ft 9 kts 13°
2026-04-29 14:41 -8.74586 115.16341 32 ft 2 kts 358°
2026-04-29 14:42 -8.74575 115.16341 32 ft 1 kts 358°
2026-04-29 14:42 -8.74571 115.16341 32 ft 0 kts 358°
2026-04-29 14:42 -8.74568 115.16340 32 ft 0 kts 358°